Location: Sternwarte_Laufen
(47.9344°N, 12.9346°E)
Time: 14:08:43
(UTC+01:00)

Tiangong 2 - Visible Passes

Search period start: 18 December 2018 00:00
Search period end: 28 December 2018 00:00
Orbit: 383 x 391 km, 42.8° (Epoch: 18 December)

Date Brightness Start Highest point End Pass type
(mag) Time Alt. Az. Time Alt. Az. Time Alt. Az.
20 Dec 3.8 18:33:55 10° SSW 18:34:34 12° S 18:34:34 12° S visible
21 Dec 4.3 19:10:39 10° SW 19:10:52 11° SW 19:10:52 11° SW visible
22 Dec 3.0 18:12:16 10° SSW 18:14:41 20° SSE 18:14:50 20° SSE visible
23 Dec 3.5 17:14:12 10° SSW 17:16:05 15° SSE 17:17:58 10° ESE visible
23 Dec 3.3 18:49:30 10° SW 18:51:03 22° SW 18:51:03 22° SW visible
24 Dec 2.7 17:50:57 10° SW 17:53:38 26° SSE 17:54:59 19° SE visible
24 Dec 4.7 19:27:10 10° WSW 19:27:15 10° WSW 19:27:15 10° WSW visible
25 Dec 2.4 18:28:26 10° WSW 18:31:11 31° S 18:31:11 31° S visible
26 Dec 2.6 17:29:46 10° WSW 17:32:36 30° S 17:35:08 12° ESE visible
26 Dec 3.9 19:06:14 10° WSW 19:07:24 18° SW 19:07:24 18° SW visible
27 Dec 2.6 18:07:25 10° WSW 18:10:16 30° S 18:11:24 23° SSE visible
